Weather History for KPKD - July, 2013

Change the Weather History Date:

Wednesday, July 10, 2013

  Actual Average Record
Temperature  
Mean Temperature 66 °F -  
Max Temperature 77 °F 82 °F 98 °F (1980)
Min Temperature 55 °F 56 °F 41 °F (1965)
Cooling Degree Days 1    
Growing Degree Days 16 (Base 50)    
Moisture  
Dew Point 54 °F    
Average Humidity 69    
Maximum Humidity 93    
Minimum Humidity 42    
Precipitation  
Precipitation 0.00 in - - ()
Sea Level Pressure  
Sea Level Pressure 30.05 in    
Wind  
Wind Speed 8 mph (WNW)    
Max Wind Speed 14 mph    
Max Gust Speed 21 mph    
Visibility 8 miles    
Events      
Averages and records for this station are not official NWS values.
T = Trace of Precipitation, MM = Missing Value Source: NWS Daily Summary

Daily Weather History Graph

Daily Weather History Graph

Search for Another Location

Airport or City:

Trip Planner

Search our weather history database for the weather conditions in past years. The results will help you decide how hot, cold, wet, or windy it might be!

Date:

Astronomy

Jul. 10, 2013 Rise Set
Actual Time 5:36 AM CDT 9:14 PM CDT
Civil Twilight 4:57 AM CDT 9:52 PM CDT
Nautical Twilight 4:06 AM CDT 10:44 PM CDT
Astronomical Twilight 2:55 AM CDT 11:54 PM CDT
Moon 8:10 AM CDT (7/10) 10:10 PM CDT (7/10)
Length of Visible Light 16h 55m
Length of Day
15h 38m
Waxing Crescent, 5% of the Moon is Illuminated
Jul 10
Waxing Crescent
Jul 15
First Quarter
Jul 22
Full
Jul 29
Last Quarter
Aug 6
New

Hourly Weather History & Observations

Time (CDT) Temp. Dew Point Humidity Pressure Visibility Wind Dir Wind Speed Gust Speed Precip Events Conditions
12:53 AM 57.9 °F 53.1 °F 84% 30.01 in 10.0 mi NW 9.2 mph - N/A   Clear
1:53 AM 55.0 °F 53.1 °F 93% 30.01 in 8.0 mi West 4.6 mph - N/A   Clear
2:53 AM 55.9 °F 53.1 °F 90% 30.01 in 8.0 mi WNW 6.9 mph - N/A   Clear
3:53 AM 55.0 °F 53.1 °F 93% 30.02 in 7.0 mi WNW 6.9 mph - N/A   Clear
4:53 AM 55.9 °F 54.0 °F 93% 30.03 in 8.0 mi WNW 6.9 mph - N/A   Mostly Cloudy
5:53 AM 55.9 °F 54.0 °F 93% 30.04 in 6.0 mi WNW 9.2 mph - N/A   Clear
6:53 AM 57.0 °F 54.0 °F 89% 30.06 in 6.0 mi WNW 6.9 mph - N/A   Clear
7:53 AM 60.1 °F 55.9 °F 86% 30.06 in 6.0 mi WNW 9.2 mph - N/A   Clear
8:53 AM 64.0 °F 55.9 °F 75% 30.07 in 7.0 mi NW 9.2 mph - N/A   Clear
9:53 AM 66.9 °F 57.0 °F 70% 30.08 in 7.0 mi NW 11.5 mph - N/A   Clear
10:53 AM 70.0 °F 57.0 °F 63% 30.07 in 7.0 mi NW 9.2 mph - N/A   Clear
11:53 AM 73.0 °F 57.0 °F 57% 30.07 in 7.0 mi WNW 11.5 mph - N/A   Clear
12:53 PM 75.0 °F 53.1 °F 46% 30.07 in 7.0 mi NW 13.8 mph - N/A   Partly Cloudy
1:53 PM 75.0 °F 53.1 °F 46% 30.07 in 8.0 mi WNW 12.7 mph - N/A   Scattered Clouds
2:53 PM 77.0 °F 53.1 °F 43% 30.06 in 9.0 mi WNW 12.7 mph - N/A   Scattered Clouds
3:53 PM 75.9 °F 51.1 °F 42% 30.04 in 8.0 mi NW 12.7 mph 20.7 mph N/A   Partly Cloudy
4:53 PM 75.9 °F 52.0 °F 43% 30.04 in 9.0 mi WNW 9.2 mph - N/A   Scattered Clouds
5:53 PM 75.9 °F 51.1 °F 42% 30.03 in 9.0 mi WNW 12.7 mph - N/A   Partly Cloudy
6:53 PM 75.0 °F 52.0 °F 44% 30.03 in 9.0 mi WNW 10.4 mph - N/A   Clear
7:53 PM 73.0 °F 53.1 °F 49% 30.02 in 9.0 mi WNW 4.6 mph - N/A   Clear
8:53 PM 68.0 °F 59.0 °F 73% 30.04 in 8.0 mi Calm Calm - N/A   Scattered Clouds
9:53 PM 66.0 °F 57.0 °F 73% 30.04 in 9.0 mi Calm Calm - N/A   Clear
10:53 PM 62.1 °F 55.9 °F 80% 30.05 in 8.0 mi Calm Calm - N/A   Clear
11:53 PM 62.1 °F 55.9 °F 80% 30.06 in 8.0 mi Calm Calm - N/A   Clear